KF5CFW Weather Reports


time (UTC)temp
C
wind
direction
speed
KPH
gust
KPH
rain 1hr
cm
rain 24hr
cm
rain mn
cm
humidity
%
barometer
mb
20260906150031 31 170 0.0 0.0 0.00 0.00 0.00 56 1012.7
20260906144528 31 145 0.0 1.6 0.00 0.00 0.00 55 1012.6
20260906143022 30 148 0.0 0.0 0.00 0.00 0.00 53 1012.6
20260906141518 29 148 0.0 0.0 0.00 0.00 0.00 48 1012.7
20260906140015 28 148 0.0 0.0 0.00 0.00 0.00 38 1012.5
20260906134512 28 148 0.0 0.0 0.00 0.00 0.00 28 1012.6
20260906133008 27 148 0.0 0.0 0.00 0.00 0.00 9 1012.5
20260906131511 26 148 0.0 0.0 0.00 0.00 0.00 1 1012.5
20260906130002 26 148 0.0 0.0 0.00 0.00 0.00 1 1012.5
20260906124557 26 148 0.0 0.0 0.00 0.00 0.00 1 1012.3
20260906123054 25 148 0.0 0.0 0.00 0.00 0.00 1 1012.3
20260906121550 25 148 0.0 0.0 0.00 0.00 0.00 1 1012.2
20260906120054 25 148 0.0 0.0 0.00 0.00 0.00 1 1011.9
20260906114539 25 148 0.0 0.0 0.00 0.00 0.00 1 1011.8
20260906113035 25 148 0.0 0.0 0.00 0.00 0.00 1 1011.7
20260906111530 25 148 0.0 0.0 0.00 0.00 0.00 3 1011.5
20260906110029 25 148 0.0 0.0 0.00 0.00 0.00 5 1011.4
20260906104627 26 148 0.0 0.0 0.00 0.00 0.00 6 1011.4
20260906103025 26 148 0.0 0.0 0.00 0.00 0.00 9 1011.4
20260906101524 26 148 0.0 0.0 0.00 0.00 0.00 12 1011.3
20260906100022 26 148 0.0 0.0 0.00 0.00 0.00 15 1011.0
20260906094519 26 148 0.0 0.0 0.00 0.00 0.00 18 1010.8
20260906093028 26 148 0.0 0.0 0.00 0.00 0.00 23 1010.8
20260906091515 27 148 0.0 0.0 0.00 0.00 0.00 26 1010.7
20260906090013 27 148 0.0 0.0 0.00 0.00 0.00 28 1010.7
20260906084514 27 148 0.0 0.0 0.00 0.00 0.00 33 1010.5
20260906083007 27 148 0.0 0.0 0.00 0.00 0.00 36 1010.6
20260906081506 27 148 0.0 0.0 0.00 0.00 0.00 38 1010.5
20260906080004 28 148 0.0 0.0 0.00 0.00 0.00 40 1010.6
20260906074504 28 148 0.0 1.6 0.00 0.00 0.00 42 1010.7
20260906073002 28 148 0.0 1.6 0.00 0.00 0.00 44 1010.7
20260906071601 28 148 0.0 0.0 0.00 0.00 0.00 44 1010.8
20260906070058 28 148 0.0 1.6 0.00 0.00 0.00 46 1010.9
20260906064556 28 156 0.0 0.0 0.00 0.00 0.00 47 1011.0
20260906063055 28 156 0.0 0.0 0.00 0.00 0.00 48 1011.0
20260906061552 28 156 0.0 1.6 0.00 0.00 0.00 49 1011.1
20260906060100 29 158 0.0 0.0 0.00 0.00 0.00 49 1011.1
20260906054551 29 155 0.0 1.6 0.00 0.00 0.00 50 1011.0
20260906053049 29 155 0.0 1.6 0.00 0.00 0.00 51 1010.9
20260906051554 29 154 0.0 0.0 0.00 0.00 0.00 54 1010.9
20260906050047 30 147 0.0 0.0 0.00 0.00 0.00 55 1010.9
20260906044542 30 148 0.0 0.0 0.00 0.00 0.00 56 1011.1
20260906043043 30 146 0.0 0.0 0.00 0.00 0.00 57 1010.9
20260906041546 30 146 0.0 0.0 0.00 0.00 0.00 57 1010.8
20260906040047 30 69 0.0 1.6 0.00 0.00 0.00 58 1010.8
20260906034540 30 153 0.0 1.6 0.00 0.00 0.00 58 1010.8
20260906033039 30 143 0.0 1.6 0.00 0.00 0.00 58 1010.8
20260906031538 31 49 0.0 1.6 0.00 0.00 0.00 58 1010.9
20260906030039 31 150 0.0 1.6 0.00 0.00 0.00 58 1010.8
20260906024538 31 145 0.0 1.6 0.00 0.00 0.00 58 1010.7
20260906023044 31 134 0.0 1.6 0.00 0.00 0.00 57 1010.5
20260906021537 31 141 0.0 1.6 0.00 0.00 0.00 57 1010.2
20260906020036 31 152 0.0 1.6 0.00 0.00 0.00 56 1010.1
20260906014539 32 95 0.0 1.6 0.00 0.00 0.00 55 1009.9
20260906013034 32 157 0.0 1.6 0.00 0.00 0.00 54 1009.5
20260906011534 33 155 0.0 3.2 0.00 0.00 0.00 53 1009.3
20260906010034 33 139 0.0 4.8 0.00 0.00 0.00 50 1009.2
20260906004534 35 152 0.0 1.6 0.00 0.00 0.00 43 1008.9
20260906003033 35 131 0.0 1.6 0.00 0.00 0.00 41 1008.8
20260906001529 35 143 0.0 1.6 0.00 0.00 0.00 40 1008.8
20260906000025 36 147 0.0 0.0 0.00 0.00 0.00 39 1008.6
20260905234522 37 146 0.0 0.0 0.00 0.00 0.00 38 1008.6
20260905233021 37 146 0.0 1.6 0.00 0.00 0.00 36 1008.5
20260905231517 38 21 0.0 1.6 0.00 0.00 0.00 35 1008.6
20260905230013 39 165 0.0 1.6 0.00 0.00 0.00 33 1008.4
20260905224516 39 120 0.0 0.0 0.00 0.00 0.00 34 1008.5
20260905223004 40 148 0.0 0.0 0.00 0.00 0.00 33 1008.5
20260905221600 39 141 0.0 1.6 0.00 0.00 0.00 34 1008.6
20260905220055 39 348 0.0 1.6 0.00 0.00 0.00 34 1008.6
20260905214554 38 136 0.0 1.6 0.00 0.00 0.00 36 1008.9
20260905213049 37 146 0.0 1.6 0.00 0.00 0.00 37 1009.1
20260905211542 37 23 0.0 0.0 0.00 0.00 0.00 37 1009.3
20260905210037 38 1 0.0 1.6 0.00 0.00 0.00 37 1009.4
20260905204533 38 105 0.0 1.6 0.00 0.00 0.00 37 1009.6
20260905203031 39 350 0.0 1.6 0.00 0.00 0.00 35 1009.7
20260905201527 39 130 0.0 3.2 0.00 0.00 0.00 35 1009.9
20260905200020 38 271 0.0 1.6 0.00 0.00 0.00 35 1010.1
20260905194516 38 65 0.0 1.6 0.00 0.00 0.00 36 1010.5
20260905193013 37 252 0.0 1.6 0.00 0.00 0.00 40 1010.7
20260905191508 37 176 0.0 1.6 0.00 0.00 0.00 38 1011.0
20260905190002 38 46 0.0 1.6 0.00 0.00 0.00 36 1011.2
20260905184619 38 133 0.0 3.2 0.00 0.00 0.00 38 1011.5
20260905183054 38 184 0.0 3.2 0.00 0.00 0.00 38 1011.6
20260905181550 38 232 0.0 3.2 0.00 0.00 0.00 38 1011.9
20260905180044 38 193 0.0 1.6 0.00 0.00 0.00 39 1012.3
20260905174546 37 61 0.0 1.6 0.00 0.00 0.00 41 1012.4
20260905173038 36 48 0.0 1.6 0.00 0.00 0.00 43 1012.5
20260905171531 36 330 0.0 3.2 0.00 0.00 0.00 43 1012.7
20260905170027 36 86 0.0 1.6 0.00 0.00 0.00 44 1012.8
20260905164523 36 140 0.0 1.6 0.00 0.00 0.00 47 1013.0
20260905163024 34 73 0.0 1.6 0.00 0.00 0.00 49 1013.1
20260905161513 34 233 0.0 1.6 0.00 0.00 0.00 50 1013.0
20260905160009 33 151 0.0 1.6 0.00 0.00 0.00 53 1013.0
20260905154505 32 249 0.0 1.6 0.00 0.00 0.00 55 1013.0
20260905153101 32 253 0.0 1.6 0.00 0.00 0.00 56 1013.1
20260905153001 32 252 0.0 1.6 0.00 0.00 0.00 56 1013.2
20260905151556 31 233 0.0 1.6 0.00 0.00 0.00 57 1013.0